Location: Unspecified
(40.7945°N, 111.1337°W)
Time: 07:53:28
(UTC-07:00)

CZ-3 Stage 3 - Visible Passes

Search period start: 18 December 2017 00:00
Search period end: 28 December 2017 00:00
Orbit: 418 x 34779 km, 31.0° (Epoch: 18 December)

Date Brightness Start Highest point End Pass type
(mag) Time Alt. Az. Time Alt. Az. Time Alt. Az.
18 Dec 5.7 04:00:28 28° S 04:01:27 28° S 04:33:04 10° SE visible
19 Dec 5.6 20:38:49 10° SSW 20:40:43 12° SSW 20:40:43 12° SSW visible
21 Dec 5.8 03:51:44 27° S 03:52:14 27° S 04:21:56 10° SE visible
22 Dec 5.4 20:28:53 10° SSW 20:31:50 13° SSW 20:31:50 13° SSW visible
23 Dec 6.6 07:21:43 10° SW 07:47:38 17° SSW 11:06:47 10° S visible
24 Dec 6.0 03:43:00 25° S 03:43:00 25° S 04:10:51 10° SE visible
25 Dec 5.3 20:19:00 10° SW 20:22:56 15° S 20:22:56 15° S visible
26 Dec 6.5 07:13:31 10° SW 07:39:20 16° SSW 10:47:37 10° S visible
27 Dec 6.1 03:34:16 24° S 03:34:16 24° S 03:59:47 10° SE visible
